Regional Weather Roundup
Issued by NWS

Home | Current Version | Previous Version | Graphics & Text | Print | Product List | Glossary Off
Versions: 1 2 3 4 5 6 7 8 9 10 11 12 13 14 15 16 17 18 19 20 21 22 23 24 25 26 27 28 29 30 31 32 33 34 35 36 37 38 39 40 41 42 43 44 45 46 47 48 49 50

000
ASUS43 KMKX 270900
RWRWI

WISCONSIN REGIONAL WEATHER ROUNDUP
NATIONAL WEATHER SERVICE MILWAUKEE/SULLIVAN WI
400 AM CDT WED AUG 27 2014

NOTE: "FAIR" INDICATES FEW OR NO CLOUDS BELOW 12,000 FEET WITH NO
SIGNIFICANT WEATHER AND/OR OBSTRUCTIONS TO VISIBILITY.

WIZ001-002-006>008-014>016-023>028-271000-
NORTHWEST WISCONSIN

CITY           SKY/WX    TMP DP  RH WIND       PRES   REMARKS
SUPERIOR ARPT  MOCLDY    53  52  97 SW5       30.19S
ASHLAND        CLOUDY    55  52  89 W3        30.19S
HAYWARD        CLOUDY    56  55  97 CALM      30.20F
SIREN          CLOUDY    56  55  95 CALM      30.21S
RICE LAKE      LGT RAIN  58  55  89 CALM      30.21S
LADYSMITH      CLOUDY    58  55  92 CALM      30.21R
EAU CLAIRE     NOT AVBL
MENOMONIE      CLOUDY    60  57  92 CALM      30.19S
NEW RICHMOND   CLOUDY    58  58  97 CALM      30.20F
OSCEOLA        CLOUDY    59  58  98 N7        30.22F
$$

WIZ003>005-009-010-017-018-271000-
NORTH CENTRAL WISCONSIN

CITY           SKY/WX    TMP DP  RH WIND       PRES   REMARKS
WOODRUFF       LGT RAIN  57  55  94 CALM      30.17F
RHINELANDER    LGT RAIN  55  54  96 CALM      30.18F
EAGLE RIVER    LGT RAIN  53  53 100 CALM      30.17F
LAND O LAKES   RAIN      53  53  99 CALM      30.17F
PHILLIPS       CLOUDY    55  54  99 CALM      30.18F
TOMAHAWK       RAIN      55  52  92 CALM      30.19S
MEDFORD        LGT RAIN  56  55  97 CALM      30.19R
MERRILL        DRIZZLE   56  56  99 CALM      30.19S
$$

WIZ029-030-035-036-043>047-271000-
CENTRAL WISCONSIN

CITY           SKY/WX    TMP DP  RH WIND       PRES   REMARKS
WAUSAU         LGT RAIN  59  56  89 NW3       30.17S
MOSINEE        LGT RAIN  59  54  82 CALM      30.19S
MARSHFIELD     LGT RAIN  60  54  80 N5        30.18S
STEVENS POINT  CLOUDY    56  54  91 CALM      30.18F
WAUPACA        CLOUDY    62  57  85 CALM      30.18S
WAUTOMA        NOT AVBL
WISC RAPIDS    CLOUDY    60  55  83 N5        30.18F
CAMP DOUGLAS   NOT AVBL
$$

WIZ011>013-019>022-031-037>040-048>050-271000-
NORTHEAST WISCONSIN

CITY           SKY/WX    TMP DP  RH WIND       PRES   REMARKS
ANTIGO         LGT RAIN  55  54  94 CALM      30.18F
STURGEON BAY   MOCLDY    59  52  77 NE3       30.17S
GREEN BAY      CLOUDY    60  55  83 N6        30.16S
MANITOWOC      NOT AVBL
APPLETON       CLOUDY    59  52  77 N8        30.17S
CLINTONVILLE   CLOUDY    59  54  82 CALM      30.17F
OSHKOSH        CLOUDY    63  57  81 VRB3      30.16R
$$

WIZ032>034-041-042-053>061-271000-
SOUTHWEST WISCONSIN

CITY           SKY/WX    TMP DP  RH WIND       PRES   REMARKS
LA CROSSE      PTCLDY    62  58  86 CALM      30.16F
SPARTA         CLOUDY    57  56  97 CALM      30.18S
VIROQUA        FAIR      59  58  95 N3        30.17F
BOSCOBEL       CLOUDY    63  60  90 CALM      30.16S
PRAIRIE DU CHI PTCLDY    61  58  90 CALM      30.16S
PLATTEVILLE    FAIR      63  60  90 N5        30.17S
$$

WIZ056-057-062-063-064-067-068-271000-
SOUTH CENTRAL WISCONSIN

CITY           SKY/WX    TMP DP  RH WIND       PRES   REMARKS
BARABOO/DELLS  CLOUDY    62  56  83 CALM      30.17R
LONE ROCK      NOT AVBL
WATERTOWN      CLOUDY    62  59  89 CALM      30.14S
MADISON        CLOUDY    63  60  90 NW3       30.16S
MIDDLETON      CLOUDY    64  61  91 CALM      30.16F
MONROE         RAIN      63  61  94 N5        30.15S
JANESVILLE     CLOUDY    66  55  68 CALM      30.14R
$$

WIZ051-052-058>065-066-070>072-271000-
SOUTHEAST WISCONSIN

CITY           SKY/WX    TMP DP  RH WIND       PRES   REMARKS
MILWAUKEE      CLOUDY    64  58  80 NW3       30.13S
WAUKESHA       CLOUDY    61  55  82 CALM      30.16R
MILWAUKEE/TIMM CLOUDY    63  55  77 CALM      30.15R
RACINE         CLOUDY    65  61  87 CALM      30.14F
BURLINGTON     CLOUDY    61  60  96 CALM      30.13F
KENOSHA        CLOUDY    64  60  87 N3        30.13F
FOND DU LAC    CLOUDY    62  56  80 N6        30.16R
SHEBOYGAN      CLOUDY    61  57  87 N6        30.14S
WEST BEND      CLOUDY    61  55  82 NW3       30.14S
JUNEAU         CLOUDY    61  56  83 CALM      30.16S
$$

LSZ147-162-271000-
LAKE SUPERIOR

STATION/POSITION TIME  TEMP    WIND        PRES    WAVE
                       AIR SEA DIR/SP/G            HT/PER
                 (UTC) (F)     (DEG/KT/KT) (MB)    (FT/S)
W MID LAKE BUOY  0750   57 55  280/  6/  6 1021.2S   1/ 3
DEVILS ISLAND    0800   58     290/  7/  8 1022.3R
PORT WING        0800   60     300/  3/  4 1022.4S
SAXON HARBOR     0800   57     160/  4/  6 1021.7F
$$

LMZ867-665-643>646-271000-
LAKE MICHIGAN

STATION/POSITION TIME  TEMP    WIND        PRES    WAVE
                       AIR SEA DIR/SP/G            HT/PER
                 (UTC) (F)     (DEG/KT/KT) (MB)    (FT/S)
N MID LAKE BUOY  0750   63 65  360/ 10/ 12 1020.6R   2/ 4
NORTHPORT PIER   0800   63      20/  5/  8 1021.0R
SISTER BAY       0811   59        CALM       N/A
ALGOMA LAKESHORE 0823          350/  6/  8   N/A
KEWAUNEE LAKESHO 0800   63      40/ 12/ 15 1019.7R
SHEBOYGAN LAKESH 0800   65 64  330/  9/ 10 1020.6R
ATWATER BUOY     0800   67     310/  6/  8 1021.4R
MILWAUKEE LAKESH 0800   67     340/  7/  8   N/A
S MID LAKE BUOY  0750   68 69     CALM     1020.0R   1
KENOSHA   LAKESH 0800   68     330/  4/  7 1020.0R
$$

TC  - TEMPERATURE IN CELSIUS
VSB - VISIBILITY IN STATUTE MILES
WCI - WIND CHILL INDEX
HX  - HEAT INDEX



USA.gov is the U.S. government's official web portal to all federal, state and local government web resources and services.